Tracking 19562 objects as of 24-Mar-2019
HD Live streaming from Space Station
objects crossing your sky now

LES 9

Track LES 9 now!
LES 9 is classified as:


NORAD ID: 8747
Int'l Code: 1976-023B
Perigee: 35,713.9 km
Apogee: 35,875.6 km
Inclination: 17.1 °
Period: 1,436.1 minutes
Semi major axis: 42165 km
RCS: 3.1777 m2 (large)
Launch date: March 15, 1976
Source: United States (US)
Launch site: AIR FORCE EASTERN TEST RANGE (AFETR)

Original purpose was "Air Force sponsored program in space communications"; nuclear-powered; circuits jam-resistant to operate in hostile environment.
aabbcc
Your satellite tracking list
Your tracking list is empty




NASA's NSSDC Master Catalog

Two Line Element Set (TLE):
1  8747U 76023B   19083.22313828 -.00000114  00000-0  00000+0 0  9990
2  8747  17.1159  72.4194 0019180 105.2073 339.9447  1.00268119103186
Source of the keplerian elements: AFSPC